Location: Chuathbaluk
(61.5726°N, 159.2454°W)
Time: 12:31:06
(UTC+00:00)

N. Korean satellite - Pass Details

Date: 29 October 2020
Orbit: 453 x 503 km, 97.2° (Epoch: 04 December)

Event Time Altitude Azimuth Distance (km) Brightness Sun altitude
Rises 04:12:14 0° 205° (SSW) 2,534 10.7 -10.9°
Reaches altitude 10° 04:14:47 10° 225° (SW) 1,649 10.1 -11.2°
Maximum altitude 04:17:19 18° 271° (W) 1,213 9.8 -11.5°
Drops below altitude 10° 04:19:51 10° 317° (NW) 1,639 9.8 -11.8°
Sets 04:22:23 0° 336° (NNW) 2,512 10.4 -12.1°
